Time,TemperatureF,DewpointF,PressureIn,WindDirection,WindDirectionDegrees,WindSpeedMPH,WindSpeedGustMPH,Humidity,HourlyPrecipIn,Conditions,Clouds,dailyrainin,SoftwareType,DateUTC
2013-07-02 00:00:00,77.2,68.0,30.03,North,357,1.0,-999.0,74,-99.99,,,0.00,weatherlink.com 1.10,2013-07-02 04:00:00,
2013-07-02 00:16:00,77.2,69.0,30.03,East,84,0.0,-999.0,75,-99.99,,,0.00,weatherlink.com 1.10,2013-07-02 04:16:00,
2013-07-02 00:31:00,77.2,70.0,30.03,West,278,10.0,-999.0,77,-99.99,,,0.00,weatherlink.com 1.10,2013-07-02 04:31:00,
2013-07-02 00:46:00,77.2,70.0,30.04,ENE,76,1.0,-999.0,78,-99.99,,,0.00,weatherlink.com 1.10,2013-07-02 04:46:00,
2013-07-02 01:01:00,77.0,70.0,30.04,NNE,29,4.0,-999.0,78,-99.99,,,0.00,weatherlink.com 1.10,2013-07-02 05:01:00,
2013-07-02 01:16:00,76.7,69.0,30.04,ENE,64,2.0,-999.0,78,-99.99,,,0.01,weatherlink.com 1.10,2013-07-02 05:16:00,
2013-07-02 01:31:00,76.3,69.0,30.03,SE,146,2.0,-999.0,79,-99.99,,,0.01,weatherlink.com 1.10,2013-07-02 05:31:00,
2013-07-02 01:46:00,76.0,69.0,30.02,ENE,64,0.0,-999.0,80,-99.99,,,0.01,weatherlink.com 1.10,2013-07-02 05:46:00,
2013-07-02 02:01:00,76.0,69.0,30.02,East,84,2.0,-999.0,80,-99.99,,,0.01,weatherlink.com 1.10,2013-07-02 06:01:00,
2013-07-02 02:16:00,76.3,70.0,30.02,ENE,74,1.0,-999.0,80,-99.99,,,0.01,weatherlink.com 1.10,2013-07-02 06:16:00,
2013-07-02 02:31:00,76.7,70.0,30.02,ESE,114,2.0,-999.0,80,-99.99,,,0.01,weatherlink.com 1.10,2013-07-02 06:31:00,
2013-07-02 02:46:00,76.8,70.0,30.02,ESE,106,1.0,-999.0,79,-99.99,,,0.01,weatherlink.com 1.10,2013-07-02 06:46:00,
2013-07-02 03:01:00,76.8,70.0,30.02,ENE,62,0.0,-999.0,79,-99.99,,,0.01,weatherlink.com 1.10,2013-07-02 07:01:00,
2013-07-02 03:16:00,76.8,69.0,30.02,South,180,0.0,-999.0,78,-99.99,,,0.01,weatherlink.com 1.10,2013-07-02 07:16:00,
2013-07-02 03:31:00,76.8,69.0,30.02,East,93,0.0,-999.0,78,-99.99,,,0.01,weatherlink.com 1.10,2013-07-02 07:31:00,
2013-07-02 03:46:00,77.0,69.0,30.02,East,83,6.0,-999.0,77,-99.99,,,0.01,weatherlink.com 1.10,2013-07-02 07:46:00,
2013-07-02 04:01:00,77.0,69.0,30.02,ENE,61,5.0,-999.0,77,-99.99,,,0.01,weatherlink.com 1.10,2013-07-02 08:01:00,
2013-07-02 04:16:00,77.0,70.0,30.02,NE,52,3.0,-999.0,78,-99.99,,,0.01,weatherlink.com 1.10,2013-07-02 08:16:00,
2013-07-02 04:31:00,77.0,69.0,30.03,NE,51,0.0,-999.0,77,-99.99,,,0.01,weatherlink.com 1.10,2013-07-02 08:31:00,
2013-07-02 04:46:00,76.8,69.0,30.03,ENE,71,0.0,-999.0,78,-99.99,,,0.02,weatherlink.com 1.10,2013-07-02 08:46:00,
2013-07-02 05:01:00,76.8,69.0,30.03,NE,56,1.0,-999.0,78,-99.99,,,0.02,weatherlink.com 1.10,2013-07-02 09:01:00,
2013-07-02 05:16:00,76.7,69.0,30.04,ENE,68,0.0,-999.0,78,-99.99,,,0.02,weatherlink.com 1.10,2013-07-02 09:16:00,
2013-07-02 05:31:00,76.7,69.0,30.04,West,281,1.0,-999.0,78,-99.99,,,0.02,weatherlink.com 1.10,2013-07-02 09:31:00,
2013-07-02 05:46:00,76.8,69.0,30.04,ENE,64,4.0,-999.0,78,-99.99,,,0.02,weatherlink.com 1.10,2013-07-02 09:46:00,
2013-07-02 06:01:00,76.8,69.0,30.05,SE,133,1.0,-999.0,77,-99.99,,,0.02,weatherlink.com 1.10,2013-07-02 10:01:00,
2013-07-02 06:16:00,76.8,69.0,30.05,ENE,71,4.0,-999.0,77,-99.99,,,0.02,weatherlink.com 1.10,2013-07-02 10:16:00,
2013-07-02 06:31:00,76.8,69.0,30.06,ENE,68,0.0,-999.0,77,-99.99,,,0.02,weatherlink.com 1.10,2013-07-02 10:31:00,
2013-07-02 06:46:00,76.8,69.0,30.06,ENE,72,2.0,-999.0,77,-99.99,,,0.02,weatherlink.com 1.10,2013-07-02 10:46:00,
2013-07-02 07:01:00,76.8,69.0,30.07,ENE,66,1.0,-999.0,77,-99.99,,,0.02,weatherlink.com 1.10,2013-07-02 11:01:00,
2013-07-02 07:16:00,76.7,69.0,30.07,ENE,75,0.0,-999.0,77,-99.99,,,0.02,weatherlink.com 1.10,2013-07-02 11:16:00,
2013-07-02 07:31:00,76.7,69.0,30.08,ENE,70,0.0,-999.0,77,-99.99,,,0.02,weatherlink.com 1.10,2013-07-02 11:31:00,
2013-07-02 07:46:00,76.5,69.0,30.08,ENE,70,0.0,-999.0,77,-99.99,,,0.02,weatherlink.com 1.10,2013-07-02 11:46:00,
2013-07-02 08:01:00,76.5,69.0,30.09,East,88,3.0,-999.0,78,-99.99,,,0.02,weatherlink.com 1.10,2013-07-02 12:01:00,
2013-07-02 08:16:00,76.5,69.0,30.09,East,80,0.0,-999.0,78,-99.99,,,0.02,weatherlink.com 1.10,2013-07-02 12:16:00,
2013-07-02 08:31:00,76.7,69.0,30.09,ESE,106,0.0,-999.0,78,-99.99,,,0.02,weatherlink.com 1.10,2013-07-02 12:31:00,
2013-07-02 08:46:00,77.2,70.0,30.09,ENE,59,0.0,-999.0,78,-99.99,,,0.02,weatherlink.com 1.10,2013-07-02 12:46:00,
2013-07-02 09:01:00,77.4,70.0,30.09,ENE,67,0.0,-999.0,77,-99.99,,,0.02,weatherlink.com 1.10,2013-07-02 13:01:00,
2013-07-02 09:16:00,77.6,70.0,30.09,NNE,32,0.0,-999.0,76,-99.99,,,0.02,weatherlink.com 1.10,2013-07-02 13:16:00,
2013-07-02 09:31:00,77.6,70.0,30.09,ENE,70,0.0,-999.0,77,-99.99,,,0.03,weatherlink.com 1.10,2013-07-02 13:31:00,
2013-07-02 09:46:00,77.6,70.0,30.09,East,85,0.0,-999.0,77,-99.99,,,0.03,weatherlink.com 1.10,2013-07-02 13:46:00,
2013-07-02 10:01:00,77.4,70.0,30.09,NNE,12,0.0,-999.0,77,-99.99,,,0.03,weatherlink.com 1.10,2013-07-02 14:01:00,
2013-07-02 10:16:00,77.4,70.0,30.09,ENE,62,0.0,-999.0,77,-99.99,,,0.03,weatherlink.com 1.10,2013-07-02 14:16:00,
2013-07-02 10:31:00,77.6,70.0,30.10,NE,51,0.0,-999.0,76,-99.99,,,0.03,weatherlink.com 1.10,2013-07-02 14:31:00,
2013-07-02 10:46:00,78.1,70.0,30.10,South,169,0.0,-999.0,77,-99.99,,,0.03,weatherlink.com 1.10,2013-07-02 14:46:00,
2013-07-02 11:01:00,78.6,71.0,30.10,ENE,76,0.0,-999.0,77,-99.99,,,0.04,weatherlink.com 1.10,2013-07-02 15:01:00,
2013-07-02 11:16:00,78.8,72.0,30.11,SSE,164,0.0,-999.0,79,-99.99,,,0.04,weatherlink.com 1.10,2013-07-02 15:16:00,
2013-07-02 11:31:00,78.1,71.0,30.11,NNW,330,0.0,-999.0,79,-99.99,,,0.07,weatherlink.com 1.10,2013-07-02 15:31:00,
2013-07-02 11:46:00,77.2,71.0,30.12,SW,218,3.0,-999.0,80,-99.99,,,0.09,weatherlink.com 1.10,2013-07-02 15:46:00,
2013-07-02 12:01:00,75.1,69.0,30.12,WNW,293,2.0,-999.0,80,-99.99,,,0.13,weatherlink.com 1.10,2013-07-02 16:01:00,
2013-07-02 12:16:00,73.7,68.0,30.12,SSW,193,0.0,-999.0,81,-99.99,,,0.16,weatherlink.com 1.10,2013-07-02 16:16:00,
2013-07-02 12:31:00,73.5,68.0,30.12,West,274,0.0,-999.0,82,-99.99,,,0.19,weatherlink.com 1.10,2013-07-02 16:31:00,
2013-07-02 12:46:00,74.0,68.0,30.12,North,357,1.0,-999.0,82,-99.99,,,0.29,weatherlink.com 1.10,2013-07-02 16:46:00,
2013-07-02 13:01:00,74.2,69.0,30.12,NNW,327,0.0,-999.0,83,-99.99,,,0.33,weatherlink.com 1.10,2013-07-02 17:01:00,
2013-07-02 13:16:00,73.9,69.0,30.11,NW,309,2.0,-999.0,83,-99.99,,,0.36,weatherlink.com 1.10,2013-07-02 17:16:00,
2013-07-02 13:31:00,74.2,69.0,30.11,South,187,3.0,-999.0,84,-99.99,,,0.37,weatherlink.com 1.10,2013-07-02 17:31:00,
2013-07-02 13:46:00,74.4,69.0,30.10,SSE,164,1.0,-999.0,84,-99.99,,,0.38,weatherlink.com 1.10,2013-07-02 17:46:00,
2013-07-02 14:01:00,75.8,71.0,30.09,SSE,152,0.0,-999.0,86,-99.99,,,0.38,weatherlink.com 1.10,2013-07-02 18:01:00,
2013-07-02 14:16:00,78.1,73.0,30.09,NNW,330,1.0,-999.0,84,-99.99,,,0.38,weatherlink.com 1.10,2013-07-02 18:16:00,
2013-07-02 14:31:00,78.5,73.0,30.09,SSW,192,0.0,-999.0,83,-99.99,,,0.38,weatherlink.com 1.10,2013-07-02 18:31:00,
2013-07-02 14:46:00,79.9,74.0,30.09,WSW,243,0.0,-999.0,81,-99.99,,,0.38,weatherlink.com 1.10,2013-07-02 18:46:00,
2013-07-02 15:01:00,80.7,74.0,30.08,North,351,1.0,-999.0,79,-99.99,,,0.38,weatherlink.com 1.10,2013-07-02 19:01:00,
2013-07-02 15:16:00,80.1,72.0,30.08,East,89,0.0,-999.0,77,-99.99,,,0.38,weatherlink.com 1.10,2013-07-02 19:16:00,
2013-07-02 15:31:00,80.1,72.0,30.08,SSE,153,0.0,-999.0,77,-99.99,,,0.38,weatherlink.com 1.10,2013-07-02 19:31:00,
2013-07-02 15:46:00,80.3,73.0,30.08,North,5,2.0,-999.0,77,-99.99,,,0.38,weatherlink.com 1.10,2013-07-02 19:46:00,
2013-07-02 16:01:00,80.3,72.0,30.08,ESE,105,4.0,-999.0,75,-99.99,,,0.38,weatherlink.com 1.10,2013-07-02 20:01:00,
2013-07-02 16:16:00,81.1,73.0,30.09,ENE,57,0.0,-999.0,75,-99.99,,,0.38,weatherlink.com 1.10,2013-07-02 20:16:00,
2013-07-02 16:31:00,81.2,72.0,30.09,ESE,114,1.0,-999.0,73,-99.99,,,0.38,weatherlink.com 1.10,2013-07-02 20:31:00,
2013-07-02 16:46:00,80.9,71.0,30.09,ENE,64,6.0,-999.0,71,-99.99,,,0.38,weatherlink.com 1.10,2013-07-02 20:46:00,
2013-07-02 17:01:00,80.9,70.0,30.09,North,353,4.0,-999.0,70,-99.99,,,0.38,weatherlink.com 1.10,2013-07-02 21:01:00,
2013-07-02 17:17:00,80.9,70.0,30.09,South,182,5.0,-999.0,70,-99.99,,,0.38,weatherlink.com 1.10,2013-07-02 21:17:00,
2013-07-02 17:32:00,80.7,70.0,30.10,ESE,116,4.0,-999.0,70,-99.99,,,0.38,weatherlink.com 1.10,2013-07-02 21:32:00,
2013-07-02 17:47:00,80.5,70.0,30.09,North,360,3.0,-999.0,70,-99.99,,,0.38,weatherlink.com 1.10,2013-07-02 21:47:00,
2013-07-02 18:02:00,80.7,70.0,30.10,East,91,1.0,-999.0,70,-99.99,,,0.38,weatherlink.com 1.10,2013-07-02 22:02:00,
2013-07-02 18:17:00,80.7,70.0,30.11,ENE,72,2.0,-999.0,70,-99.99,,,0.38,weatherlink.com 1.10,2013-07-02 22:17:00,
2013-07-02 18:32:00,80.7,70.0,30.11,ESE,116,3.0,-999.0,70,-99.99,,,0.38,weatherlink.com 1.10,2013-07-02 22:32:00,
2013-07-02 18:47:00,80.3,70.0,30.11,NE,41,2.0,-999.0,71,-99.99,,,0.38,weatherlink.com 1.10,2013-07-02 22:47:00,
2013-07-02 19:17:00,80.1,71.0,30.11,ENE,73,0.0,-999.0,73,-99.99,,,0.38,weatherlink.com 1.10,2013-07-02 23:17:00,
2013-07-02 19:32:00,79.9,71.0,30.13,NE,42,1.0,-999.0,73,-99.99,,,0.38,weatherlink.com 1.10,2013-07-02 23:32:00,
2013-07-02 19:47:00,79.6,70.0,30.14,NW,324,5.0,-999.0,73,-99.99,,,0.38,weatherlink.com 1.10,2013-07-02 23:47:00,
2013-07-02 20:02:00,79.2,70.0,30.14,ENE,57,3.0,-999.0,74,-99.99,,,0.38,weatherlink.com 1.10,2013-07-03 00:02:00,
2013-07-02 20:17:00,79.2,70.0,30.14,East,97,2.0,-999.0,74,-99.99,,,0.38,weatherlink.com 1.10,2013-07-03 00:17:00,
2013-07-02 20:32:00,79.0,70.0,30.14,ESE,116,2.0,-999.0,75,-99.99,,,0.38,weatherlink.com 1.10,2013-07-03 00:32:00,
2013-07-02 20:47:00,78.8,70.0,30.14,East,82,1.0,-999.0,75,-99.99,,,0.38,weatherlink.com 1.10,2013-07-03 00:47:00,
2013-07-02 21:02:00,78.5,70.0,30.14,East,80,0.0,-999.0,75,-99.99,,,0.38,weatherlink.com 1.10,2013-07-03 01:02:00,
2013-07-02 21:17:00,78.1,69.0,30.14,WNW,301,0.0,-999.0,74,-99.99,,,0.38,weatherlink.com 1.10,2013-07-03 01:17:00,
2013-07-02 21:32:00,77.6,68.0,30.14,East,91,0.0,-999.0,72,-99.99,,,0.38,weatherlink.com 1.10,2013-07-03 01:32:00,
2013-07-02 21:47:00,77.4,67.0,30.14,NE,45,1.0,-999.0,71,-99.99,,,0.38,weatherlink.com 1.10,2013-07-03 01:47:00,
2013-07-02 22:32:00,77.7,68.0,30.15,East,86,4.0,-999.0,73,-99.99,,,0.38,weatherlink.com 1.10,2013-07-03 02:32:00,
2013-07-02 22:47:00,77.7,68.0,30.15,East,85,3.0,-999.0,73,-99.99,,,0.38,weatherlink.com 1.10,2013-07-03 02:47:00,
2013-07-02 23:02:00,77.7,69.0,30.16,ENE,75,0.0,-999.0,74,-99.99,,,0.38,weatherlink.com 1.10,2013-07-03 03:02:00,
2013-07-02 23:17:00,77.7,69.0,30.16,ENE,76,0.0,-999.0,74,-99.99,,,0.38,weatherlink.com 1.10,2013-07-03 03:17:00,
2013-07-02 23:32:00,77.6,69.0,30.16,East,85,2.0,-999.0,74,-99.99,,,0.38,weatherlink.com 1.10,2013-07-03 03:32:00,
2013-07-02 23:47:00,77.7,69.0,30.16,ENE,78,0.0,-999.0,75,-99.99,,,0.38,weatherlink.com 1.10,2013-07-03 03:47:00,